DW0664 Weather Reports


Display with metric or nautical units.
time (UTC)temp
F
wind
direction
speed
MPH
gust
MPH
rain 1hr
in
rain 24hr
in
rain mn
in
humidity
%
barometer
mb
20260903153839 81 62 0.0 0.0 0.00 0.00 0.00 93 1017.6
20260903153335 81 56 0.0 1.0 0.00 0.00 0.00 93 1017.6
20260903152832 81 103 0.0 1.0 0.00 0.00 0.00 92 1017.6
20260903152327 82 75 0.0 1.0 0.00 0.00 0.00 92 1017.5
20260903151822 82 50 0.0 1.0 0.00 0.00 0.00 91 1017.5
20260903151318 82 49 0.0 1.0 0.00 0.00 0.00 91 1017.5
20260903150817 82 91 0.0 1.0 0.00 0.00 0.00 91 1017.5
20260903150317 82 59 1.0 1.0 0.00 0.00 0.00 91 1017.6
20260903145812 81 84 1.0 2.0 0.00 0.00 0.00 91 1017.4
20260903145307 81 135 4.0 6.0 0.00 0.00 0.00 91 1017.3
20260903144806 81 106 1.0 3.0 0.00 0.00 0.00 92 1017.2
20260903144302 81 47 3.0 4.0 0.00 0.00 0.00 92 1017.2
20260903143757 81 76 1.0 2.0 0.00 0.00 0.00 93 1017.3
20260903143253 81 72 0.0 3.0 0.00 0.00 0.00 94 1017.1
20260903142749 81 93 2.0 2.0 0.00 0.00 0.00 94 1017.2
20260903142245 80 75 2.0 4.0 0.00 0.00 0.00 94 1017.0
20260903141740 80 70 0.0 2.0 0.00 0.00 0.00 95 1017.0
20260903141236 80 134 3.0 4.0 0.00 0.00 0.00 95 1016.9
20260903140731 80 75 2.0 3.0 0.00 0.00 0.00 95 1017.0
20260903140226 80 86 4.0 6.0 0.00 0.00 0.00 95 1017.0
20260903135722 80 72 1.0 3.0 0.00 0.00 0.00 95 1016.7
20260903135217 80 301 1.0 1.0 0.00 0.00 0.00 95 1016.7
20260903134715 80 53 0.0 1.0 0.00 0.00 0.00 95 1016.8
20260903134212 80 71 1.0 1.0 0.00 0.00 0.00 96 1016.7
20260903133709 80 56 0.0 2.0 0.00 0.00 0.00 95 1016.7
20260903133206 80 77 1.0 1.0 0.00 0.00 0.00 95 1016.6
20260903132705 80 62 0.0 4.0 0.00 0.00 0.00 95 1016.7
20260903132200 80 87 1.0 2.0 0.00 0.00 0.00 96 1016.6
20260903131655 80 58 0.0 0.0 0.00 0.00 0.00 96 1016.5
20260903131155 80 110 2.0 2.0 0.00 0.00 0.00 96 1016.5
20260903130650 80 54 0.0 4.0 0.00 0.00 0.00 96 1016.5
20260903130150 80 55 2.0 3.0 0.00 0.00 0.00 96 1016.5
20260903125648 80 59 0.0 2.0 0.00 0.00 0.00 96 1016.4
20260903125144 80 106 1.0 2.0 0.00 0.00 0.00 96 1016.3
20260903124644 80 68 0.0 2.0 0.00 0.00 0.00 96 1016.3
20260903124143 80 65 1.0 3.0 0.00 0.00 0.00 96 1016.2
20260903123643 80 77 2.0 3.0 0.00 0.00 0.00 96 1016.0
20260903123142 80 91 1.0 2.0 0.00 0.00 0.00 96 1016.2
20260903122641 80 89 1.0 2.0 0.00 0.00 0.00 96 1015.9
20260903122136 79 67 1.0 2.0 0.00 0.00 0.00 96 1016.0
20260903121635 79 90 2.0 4.0 0.00 0.00 0.00 96 1015.7
20260903121131 79 68 1.0 3.0 0.00 0.00 0.00 96 1015.7
20260903120630 79 71 1.0 2.0 0.00 0.00 0.00 96 1015.8
20260903120125 79 78 0.0 2.0 0.00 0.00 0.00 97 1015.7
20260903115623 79 70 1.0 1.0 0.00 0.00 0.00 97 1015.6
20260903115118 79 78 0.0 1.0 0.00 0.00 0.00 97 1015.5
20260903114613 79 67 1.0 2.0 0.00 0.00 0.00 97 1015.5
20260903114109 79 90 0.0 1.0 0.00 0.00 0.00 97 1015.5
20260903113604 79 92 1.0 1.0 0.00 0.00 0.00 97 1015.4
20260903113100 79 78 0.0 1.0 0.00 0.00 0.00 97 1015.5
20260903112557 79 70 0.0 0.0 0.00 0.00 0.00 97 1015.4
20260903112056 79 93 0.0 1.0 0.00 0.00 0.00 97 1015.4
20260903111555 79 58 0.0 0.0 0.00 0.00 0.00 97 1015.4
20260903111051 79 68 0.0 3.0 0.00 0.00 0.00 97 1015.6
20260903110547 79 60 0.0 2.0 0.00 0.00 0.00 97 1015.5
20260903110042 79 80 0.0 2.0 0.00 0.00 0.00 97 1015.4
20260903105537 79 66 0.0 0.0 0.00 0.00 0.00 97 1015.5
20260903105031 79 61 0.0 0.0 0.00 0.00 0.00 97 1015.5
20260903104525 79 47 1.0 2.0 0.00 0.00 0.00 97 1015.6
20260903104021 79 62 0.0 1.0 0.00 0.00 0.00 97 1015.4
20260903103517 79 51 0.0 3.0 0.00 0.00 0.00 97 1015.3
20260903103013 79 60 0.0 1.0 0.00 0.00 0.00 98 1015.3
20260903102508 79 62 0.0 2.0 0.00 0.00 0.00 97 1015.3
20260903102007 79 54 0.0 1.0 0.00 0.00 0.00 98 1015.4
20260903101501 79 52 0.0 1.0 0.00 0.00 0.00 98 1015.3
20260903100957 79 79 0.0 1.0 0.00 0.00 0.00 98 1015.4
20260903100452 79 56 0.0 1.0 0.00 0.00 0.00 98 1015.5
20260903095949 79 58 0.0 0.0 0.00 0.00 0.00 98 1015.6
20260903095443 79 72 0.0 0.0 0.00 0.00 0.00 98 1015.6
20260903094939 79 63 0.0 1.0 0.00 0.00 0.00 98 1015.7
20260903094438 79 57 0.0 0.0 0.00 0.00 0.00 97 1015.5
20260903093935 79 63 1.0 2.0 0.00 0.00 0.00 98 1015.5
20260903093429 79 82 0.0 1.0 0.00 0.00 0.00 97 1015.4
20260903092925 79 47 0.0 0.0 0.00 0.00 0.00 97 1015.4
20260903092425 79 55 0.0 1.0 0.00 0.00 0.00 98 1015.4
20260903091924 79 62 0.0 1.0 0.00 0.00 0.00 97 1015.4
20260903091423 79 59 0.0 1.0 0.00 0.00 0.00 97 1015.5
20260903090918 79 67 0.0 0.0 0.00 0.00 0.00 97 1015.6
20260903090414 79 81 0.0 0.0 0.00 0.00 0.00 97 1015.5
20260903085912 79 64 1.0 2.0 0.00 0.00 0.00 97 1015.7
20260903085410 79 63 0.0 2.0 0.00 0.00 0.00 98 1015.5
20260903084905 79 65 0.0 1.0 0.00 0.00 0.00 98 1015.6
20260903084403 79 60 0.0 0.0 0.00 0.00 0.00 98 1015.6
20260903083859 79 79 0.0 1.0 0.00 0.00 0.00 97 1015.8
20260903083354 79 77 0.0 1.0 0.00 0.00 0.00 97 1015.7
20260903082853 79 85 0.0 4.0 0.00 0.00 0.00 98 1015.7
20260903082348 78 52 0.0 1.0 0.00 0.00 0.00 97 1015.7
20260903081843 78 56 2.0 2.0 0.00 0.00 0.00 98 1015.4
20260903081338 78 59 0.0 1.0 0.00 0.00 0.00 98 1015.5
20260903080835 78 54 0.0 0.0 0.00 0.00 0.00 98 1015.6
20260903080332 78 73 0.0 2.0 0.00 0.00 0.00 97 1015.5
20260903075831 78 76 2.0 3.0 0.00 0.00 0.00 97 1015.2
20260903075326 78 55 0.0 3.0 0.00 0.00 0.00 98 1015.4
20260903074821 78 71 0.0 2.0 0.00 0.00 0.00 98 1015.3
20260903074321 78 55 0.0 0.0 0.00 0.00 0.00 97 1015.2
20260903073816 78 63 0.0 0.0 0.00 0.00 0.00 97 1015.4
20260903073311 78 55 0.0 0.0 0.00 0.00 0.00 97 1015.2
20260903072807 78 64 0.0 1.0 0.00 0.00 0.00 97 1015.0
20260903072306 78 51 0.0 0.0 0.00 0.00 0.00 97 1015.2
20260903071800 78 56 0.0 0.0 0.00 0.00 0.00 97 1014.9
20260903071256 78 55 1.0 2.0 0.00 0.00 0.00 97 1015.0
20260903070750 78 71 0.0 0.0 0.00 0.00 0.00 96 1015.0
20260903070245 78 60 0.0 1.0 0.00 0.00 0.00 96 1015.0
20260903065740 78 67 0.0 1.0 0.00 0.00 0.00 96 1015.4
20260903065240 78 52 1.0 2.0 0.00 0.00 0.00 96 1015.3
20260903064738 78 87 1.0 3.0 0.00 0.00 0.00 96 1015.4
20260903064235 78 53 0.0 2.0 0.00 0.00 0.00 96 1015.4
20260903063731 78 86 1.0 2.0 0.00 0.00 0.00 96 1015.5
20260903063231 77 76 1.0 2.0 0.00 0.00 0.00 96 1015.4
20260903062727 77 95 2.0 6.0 0.00 0.00 0.00 96 1015.5
20260903062226 77 63 1.0 2.0 0.00 0.00 0.00 96 1015.5
20260903061723 77 83 2.0 3.0 0.00 0.00 0.00 96 1015.5
20260903061221 77 61 0.0 1.0 0.00 0.00 0.00 95 1015.7
20260903060717 77 49 0.0 1.0 0.00 0.00 0.00 95 1015.5
20260903060212 77 88 0.0 2.0 0.00 0.00 0.00 95 1015.4
20260903055709 77 118 2.0 4.0 0.00 0.00 0.00 95 1015.6
20260903055208 76 100 2.0 3.0 0.00 0.00 0.00 96 1015.5
20260903054703 76 15 2.0 3.0 0.00 0.00 0.00 96 1015.6
20260903054158 76 50 0.0 4.0 0.00 0.00 0.00 97 1015.6
20260903053654 76 48 0.0 3.0 0.00 0.00 0.00 97 1015.3
20260903053149 76 72 0.0 3.0 0.00 0.00 0.00 97 1015.5
20260903052645 76 74 2.0 3.0 0.00 0.00 0.00 98 1015.6
20260903052141 76 90 1.0 6.0 0.00 0.00 0.00 98 1015.8
20260903051635 76 59 1.0 2.0 0.00 0.00 0.00 97 1015.7
20260903051132 76 52 0.0 2.0 0.00 0.00 0.00 97 1015.7
20260903050631 76 80 1.0 3.0 0.00 0.00 0.00 97 1015.6
20260903050126 76 93 2.0 7.0 0.00 0.00 0.00 97 1016.0
20260903045625 75 87 1.0 3.0 0.00 0.57 0.57 97 1016.0
20260903045122 75 86 2.0 4.0 0.00 0.57 0.57 98 1015.8
20260903044618 75 53 1.0 4.0 0.00 0.57 0.57 98 1015.8
20260903044113 75 113 4.0 4.0 0.00 0.57 0.57 98 1015.9
20260903043609 75 125 1.0 7.0 0.00 0.57 0.57 98 1015.9
20260903043108 75 86 1.0 3.0 0.00 0.57 0.57 98 1016.0
20260903042558 75 70 1.0 4.0 0.00 0.57 0.57 98 1015.9
20260903042053 75 78 1.0 2.0 0.00 0.57 0.57 98 1016.1
20260903041549 75 63 1.0 3.0 0.00 0.57 0.57 98 1015.9
20260903041045 75 115 5.0 7.0 0.00 0.57 0.57 98 1016.1
20260903040543 75 77 2.0 6.0 0.00 0.57 0.57 98 1016.2
20260903040040 75 96 1.0 4.0 0.00 0.57 0.57 98 1016.1
20260903035535 76 129 3.0 6.0 0.00 0.57 0.57 98 1016.1
20260903035026 76 104 4.0 4.0 0.00 0.57 0.57 98 1016.2
20260903034525 76 72 3.0 6.0 0.00 0.57 0.57 98 1016.2
20260903034020 76 78 1.0 6.0 0.00 0.57 0.57 98 1016.2
20260903033515 76 63 2.0 7.0 0.00 0.57 0.57 98 1016.2
20260903033011 76 84 2.0 7.0 0.00 0.57 0.57 98 1016.3
20260903032506 76 40 2.0 6.0 0.00 0.57 0.57 98 1016.3
20260903032001 77 90 4.0 6.0 0.00 0.57 0.57 98 1016.4
20260903031500 77 88 2.0 4.0 0.00 0.57 0.57 98 1016.3
20260903030950 77 98 3.0 6.0 0.00 0.57 0.57 98 1016.2
20260903030446 77 51 2.0 8.0 0.00 0.57 0.57 98 1016.0
20260903025941 77 97 2.0 3.0 0.00 0.57 0.57 98 1015.8
20260903025437 77 104 3.0 6.0 0.00 0.57 0.57 98 1015.9
20260903024933 77 99 2.0 6.0 0.07 0.57 0.57 97 1015.9
20260903024431 77 133 3.0 6.0 0.31 0.57 0.57 97 1015.6
20260903023926 78 137 4.0 6.0 0.83 0.56 0.56 97 1016.0
20260903023423 78 18 2.0 10.0 1.37 0.50 0.50 96 1016.0
20260903022918 78 98 2.0 6.0 1.87 0.39 0.39 95 1016.1
20260903022416 80 145 2.0 3.0 1.32 0.22 0.22 92 1016.3
20260903021915 81 139 2.0 4.0 0.42 0.07 0.07 90 1016.1
20260903021411 82 347 3.0 4.0 0.00 0.00 0.00 86 1016.0
20260903020910 82 35 0.0 1.0 0.00 0.00 0.00 82 1015.9
20260903020406 82 27 1.0 2.0 0.00 0.00 0.00 82 1015.5
20260903015900 82 44 0.0 3.0 0.00 0.00 0.00 82 1014.8
20260903015350 82 67 2.0 7.0 0.00 0.00 0.00 82 1014.4
20260903014845 82 97 4.0 8.0 0.00 0.00 0.00 81 1014.6
20260903014340 83 40 1.0 3.0 0.00 0.00 0.00 79 1014.5
20260903013835 83 88 2.0 3.0 0.00 0.00 0.00 79 1014.4
20260903013334 82 35 1.0 1.0 0.00 0.00 0.00 79 1014.2
20260903012833 82 52 1.0 3.0 0.00 0.00 0.00 79 1014.0
20260903012327 82 66 1.0 2.0 0.00 0.00 0.00 80 1013.9
20260903011821 82 55 1.0 2.0 0.00 0.00 0.00 79 1013.9
20260903011321 82 56 3.0 4.0 0.00 0.00 0.00 79 1014.1
20260903010816 83 49 0.0 2.0 0.00 0.00 0.00 78 1014.2
20260903010311 83 111 0.0 1.0 0.00 0.00 0.00 78 1013.6
20260903005804 83 67 1.0 2.0 0.00 0.00 0.00 77 1013.7
20260903005259 83 155 2.0 3.0 0.00 0.00 0.00 77 1013.9
20260903004755 83 75 2.0 3.0 0.00 0.00 0.00 76 1013.8
20260903004250 83 62 1.0 4.0 0.00 0.00 0.00 76 1014.0
20260903003746 84 68 2.0 3.0 0.00 0.00 0.00 75 1014.1
20260903003240 84 40 1.0 2.0 0.00 0.00 0.00 75 1013.9
20260903002735 84 58 0.0 2.0 0.00 0.00 0.00 74 1013.7
20260903002229 84 113 1.0 2.0 0.00 0.00 0.00 75 1013.6
20260903001725 84 68 0.0 1.0 0.00 0.00 0.00 75 1013.7
20260903001225 84 60 0.0 1.0 0.00 0.00 0.00 76 1013.6
20260903000720 84 100 1.0 1.0 0.00 0.00 0.00 77 1013.6
20260903000219 84 25 0.0 1.0 0.00 0.00 0.00 77 1013.8
20260902235718 85 53 1.0 2.0 0.00 0.00 0.00 77 1013.9
20260902235214 86 83 1.0 1.0 0.00 0.00 0.00 73 1013.9
20260902234713 86 68 1.0 2.0 0.00 0.00 0.00 72 1014.0
20260902234212 87 56 0.0 4.0 0.00 0.00 0.00 71 1014.0
20260902233712 87 30 0.0 2.0 0.00 0.00 0.00 70 1014.0
20260902233212 88 67 1.0 2.0 0.00 0.00 0.00 68 1014.1
20260902232710 89 73 0.0 2.0 0.00 0.00 0.00 66 1013.5
20260902232205 90 46 1.0 2.0 0.00 0.00 0.00 65 1013.4
20260902231659 90 204 1.0 1.0 0.00 0.00 0.00 64 1013.5
20260902231154 90 97 1.0 7.0 0.00 0.00 0.00 64 1013.3
20260902230650 92 177 4.0 9.0 0.00 0.00 0.00 61 1013.4
20260902230148 93 44 2.0 2.0 0.00 0.00 0.00 58 1013.1
20260902225643 94 82 1.0 6.0 0.00 0.00 0.00 56 1013.1
20260902225142 95 83 0.0 1.0 0.00 0.00 0.00 54 1013.1
20260902224641 95 51 0.0 1.0 0.00 0.00 0.00 52 1012.9
20260902224137 97 25 1.0 1.0 0.00 0.00 0.00 49 1012.9
20260902223633 99 61 1.0 2.0 0.00 0.00 0.00 47 1012.8
20260902223132 101 207 2.0 4.0 0.00 0.00 0.00 44 1013.1
20260902222626 101 83 1.0 1.0 0.00 0.00 0.00 38 1012.7
20260902222125 101 26 2.0 3.0 0.00 0.00 0.00 38 1012.8
20260902221619 101 315 3.0 7.0 0.00 0.00 0.00 39 1012.6
20260902221114 101 6 0.0 1.0 0.00 0.00 0.00 38 1012.5
20260902220610 100 36 2.0 2.0 0.00 0.00 0.00 39 1012.7
20260902220104 101 42 1.0 2.0 0.00 0.00 0.00 38 1012.5
20260902215601 102 83 0.0 1.0 0.00 0.00 0.00 38 1012.6
20260902215055 102 191 1.0 2.0 0.00 0.00 0.00 39 1012.9
20260902214550 101 322 3.0 4.0 0.00 0.00 0.00 39 1012.8
20260902214049 101 65 1.0 3.0 0.00 0.00 0.00 39 1012.7
20260902213545 102 30 1.0 2.0 0.00 0.00 0.00 38 1013.0
20260902213044 101 78 2.0 3.0 0.00 0.00 0.00 38 1012.9
20260902212539 102 38 1.0 2.0 0.00 0.00 0.00 38 1013.1
20260902212036 102 48 1.0 2.0 0.00 0.00 0.00 37 1013.0
20260902211532 102 329 1.0 4.0 0.00 0.00 0.00 37 1013.3
20260902211026 102 31 2.0 2.0 0.00 0.00 0.00 37 1013.4
20260902210521 102 343 2.0 4.0 0.00 0.00 0.00 37 1013.3
20260902210020 102 12 1.0 2.0 0.00 0.00 0.00 38 1013.2
20260902205514 101 38 0.0 1.0 0.00 0.00 0.00 38 1013.3
20260902205010 101 320 3.0 4.0 0.00 0.00 0.00 39 1013.6
20260902204509 100 5 1.0 2.0 0.00 0.00 0.00 39 1013.4
20260902204005 101 15 2.0 3.0 0.00 0.00 0.00 38 1013.5
20260902203500 103 344 2.0 4.0 0.00 0.00 0.00 37 1013.4
20260902202959 102 213 1.0 3.0 0.00 0.00 0.00 38 1013.4
20260902202455 103 226 2.0 3.0 0.00 0.00 0.00 37 1013.5
20260902201952 102 359 2.0 2.0 0.00 0.00 0.00 36 1013.4
20260902201447 103 180 3.0 3.0 0.00 0.00 0.00 37 1013.5
20260902200946 102 289 2.0 3.0 0.00 0.00 0.00 38 1013.7
20260902200441 102 89 2.0 3.0 0.00 0.00 0.00 38 1013.9
20260902195937 103 340 2.0 3.0 0.00 0.00 0.00 37 1013.7
20260902195432 102 108 1.0 2.0 0.00 0.00 0.00 37 1014.0
20260902194932 104 310 1.0 3.0 0.00 0.00 0.00 37 1014.0
20260902194431 103 344 3.0 6.0 0.00 0.00 0.00 37 1014.2
20260902193926 103 41 1.0 4.0 0.00 0.00 0.00 38 1014.3
20260902193423 102 357 1.0 2.0 0.00 0.00 0.00 38 1014.3
20260902192921 102 0 2.0 3.0 0.00 0.00 0.00 38 1014.4
20260902192420 101 198 2.0 3.0 0.00 0.00 0.00 40 1014.4
20260902191919 101 152 2.0 3.0 0.00 0.00 0.00 40 1014.6
20260902191415 102 59 3.0 4.0 0.00 0.00 0.00 38 1014.9
20260902190910 101 160 1.0 4.0 0.00 0.00 0.00 39 1014.9
20260902190405 100 48 1.0 8.0 0.00 0.00 0.00 42 1014.9
20260902185901 100 40 1.0 2.0 0.00 0.00 0.00 41 1015.0
20260902185356 100 36 1.0 4.0 0.00 0.00 0.00 41 1014.9
20260902184852 98 345 1.0 4.0 0.00 0.00 0.00 42 1015.3
20260902184347 98 60 1.0 2.0 0.00 0.00 0.00 43 1015.3
20260902183842 100 135 2.0 2.0 0.00 0.00 0.00 42 1015.5
20260902183338 99 26 2.0 3.0 0.00 0.00 0.00 43 1015.5
20260902182828 99 3 2.0 2.0 0.00 0.00 0.00 43 1015.6
20260902182324 98 44 2.0 4.0 0.00 0.00 0.00 43 1015.5
20260902181821 98 352 4.0 8.0 0.00 0.00 0.00 44 1015.9
20260902181316 99 6 1.0 1.0 0.00 0.00 0.00 43 1015.8
20260902180810 98 54 2.0 4.0 0.00 0.00 0.00 45 1016.0
20260902180306 99 6 1.0 1.0 0.00 0.00 0.00 43 1016.1
20260902175801 98 11 1.0 3.0 0.00 0.00 0.00 45 1016.4
20260902175256 98 349 2.0 4.0 0.00 0.00 0.00 44 1016.2
20260902174757 98 9 1.0 2.0 0.00 0.00 0.00 43 1016.3
20260902174253 97 133 2.0 3.0 0.00 0.00 0.00 45 1016.4
20260902173749 97 337 2.0 4.0 0.00 0.00 0.00 45 1016.7
20260902173248 97 22 1.0 2.0 0.00 0.00 0.00 45 1016.7
20260902172743 97 65 1.0 2.0 0.00 0.00 0.00 45 1016.7
20260902172238 95 49 0.0 1.0 0.00 0.00 0.00 46 1017.0
20260902171733 95 81 2.0 4.0 0.00 0.00 0.00 47 1016.8
20260902171229 95 338 2.0 3.0 0.00 0.00 0.00 46 1016.9
20260902170724 95 26 1.0 6.0 0.00 0.00 0.00 47 1017.2
20260902170219 95 165 2.0 3.0 0.00 0.00 0.00 47 1017.1
20260902165719 96 344 2.0 3.0 0.00 0.00 0.00 48 1017.2
20260902165214 96 126 1.0 2.0 0.00 0.00 0.00 48 1017.2
20260902164709 95 57 2.0 3.0 0.00 0.00 0.00 49 1017.4
20260902164208 95 345 2.0 3.0 0.00 0.00 0.00 48 1017.2
20260902163703 95 335 1.0 4.0 0.00 0.00 0.00 49 1017.3
20260902163203 94 58 2.0 3.0 0.00 0.00 0.00 50 1017.5
20260902162702 93 289 1.0 2.0 0.00 0.00 0.00 52 1017.5
20260902162156 92 36 2.0 4.0 0.00 0.00 0.00 54 1017.4
20260902161651 93 31 2.0 3.0 0.00 0.00 0.00 53 1017.5
20260902161147 92 66 0.0 4.0 0.00 0.00 0.00 54 1017.6
20260902160644 91 55 0.0 3.0 0.00 0.00 0.00 55 1017.5
20260902160138 92 333 3.0 4.0 0.00 0.00 0.00 54 1017.5
20260902155636 91 352 1.0 3.0 0.00 0.00 0.00 57 1017.6
20260902155130 91 80 1.0 2.0 0.00 0.00 0.00 57 1017.5
20260902154625 90 156 1.0 3.0 0.00 0.00 0.00 60 1017.7